Find Starlink 33886

NORAD ID: 63681 Int'l Des: 2025-085 Owner: SPXS Country: US Constellation: starlink operational
LEOCIRCULAR

Live Position

Loading 3D Globe...

About Starlink 33886

Description loading...

Upcoming Passes

Passes for default location (London). Set your location on the main map for personalized predictions.

Altitude History

Loading altitude history...

Two-Line Element Set

1 63681U 25085T 26127.19709278 .00008612 00000-0 32214-3 0 9997
2 63681 43.0022 59.9963 0001342 272.8794 87.1904 15.27578097 57829
Epoch: May 7, 2026 • Age: 9 hours

Current Status

Altitude 490.3 km
Velocity 7.62 km/s
Sub-Earth Point -29.98°S, 54.68°W
Launch Date Apr 28, 2025
Age 1 years
Type internet

Technical Details

Classification Payload
Mass 575.00 kg
Dry Mass 530.00 kg
Total Mass 575.00 kg
Length 0.30 m
Diameter 4.10 m
Span 29.00 m
Shape Box + pan
Manufacturer SPXS
Bus Type Starlink V2MO
Phase Status In Orbit
Owner/State SPXS/US

Most Searched